Location: Runa
(38.1429°N, 80.8510°W)
Time: 12:31:13
(UTC+00:00)

ISS - Pass Details

Date: 22 April 2026
Orbit: 414 x 424 km, 51.6° (Epoch: 12 May)

Event Time Altitude Azimuth Distance (km) Brightness Sun altitude
Exits shadow 08:08:44 26° 63° (ENE) 866 -1.6 -26.3°
Drops below altitude 10° 08:10:21 10° 56° (NE) 1,499 0.0 -26.1°
Sets 08:12:29 0° 53° (NE) 2,368 1.4 -25.8°
